Погода в Щельябоже

Россия / Республика Коми     66°17′28″N   56°27′06″E
темп.,
°C
ветер,
м/с
пор.,
м/с
влажн.,
%
обл.,
%
осадки,
мм/ч
давл.,
гПа
погр.,
м
18 января, вт
вт1800:00−22юв34100100 0.0 99142
03:00−18юв3597100 0.1 99296
06:00−18вюв3597100 0.1 99296
09:00−15вюв4696100 0.4 993182
12:00−13вюв3695100 0.6 993214
15:00−12вюв3496100 1.5 994153
18:00−11в2396100 0.5 99550
21:00−12всв2297100 0.8 99516
19 января, ср
ср1900:00−16з1110087 0.1 9969
03:00−19зюз2210086 0.2 99811
06:00−18зюз339980 0.1 99935
09:00−16зюз369799 0.1 99983
12:00−18юз339980 0.0 100038
15:00−18ююз4499100 0.1 100139
18:00−19ю579959 0.0 100068
21:00−16ю6129574 0.0 999181
20 января, чт
чт2000:00
03:00−13ю81487100 0.0 997331
06:00−12ю81590100 0.0 997408
09:00
12:00−11ю81589100 0.1 997475
15:00−9ю81592100 0.6 997496
18:00−7ю81592100 0.4 997593
21:00−6ююз81490100 0.7 998503
21 января, пт
пт2100:00−6ююз81493100 0.4 1000478
03:00−5ююз8149180 0.7 1002427
06:00−6ююз7129298 0.1 1004327
09:00−6ююз61192100 0.1 1007308
12:00−7ююз61293100 0.1 1009336
15:00−7ююз71191100 0.4 1010368
18:00−8ююз71290100 0.1 1012374
21:00−8ююз71290100 0.1 1013442
22 января, сб
сб2200:00−9ююз7129295 0.3 1015390
03:00−10ююз71292100 0.5 1017363
06:00−9ююз6119183 0.1 1018335
09:00−10ююз6109279 0.4 1020283
12:00−10ююз61093100 0.2 1022352
15:00−10ююз6119396 0.6 1023328
18:00−12ююз6109391 0.1 1024281
21:00−16ююз579564 0.2 102684